• In Russia
  • List of Countries
  • For 7 days
  • Water Temperature
  • Satellite Maps
  • Weather Map
  • Weather Widgets
  • user-avatar
    Login

    Hourly Weather Mortegi

    Today, 20 February, Wednesday

    Time Temperature Precipitation Wind Pressure Humidity
    00:00 +2°C° 0 mm 5 mps 746 mmHg 89%
    01:00 +3°C° 0 mm 4 mps 746 mmHg 90%
    02:00 +2°C° 0 mm 5 mps 746 mmHg 89%
    03:00 +1°C° 0 mm 5 mps 746 mmHg 88%
    04:00 +1°C° 0 mm 6 mps 746 mmHg 88%
    05:00 +1°C° 0.1 mm 6 mps 746 mmHg 86%
    06:00 +1°C° 0.1 mm 6 mps 747 mmHg 85%
    07:00 +2°C° 0.1 mm 6 mps 747 mmHg 83%
    08:00 +2°C° 0.1 mm 6 mps 747 mmHg 81%
    09:00 +2°C° 0.1 mm 7 mps 748 mmHg 80%
    10:00 +2°C° 0.1 mm 7 mps 748 mmHg 78%
    11:00 +3°C° 0.1 mm 7 mps 749 mmHg 75%
    12:00 +3°C° 0.1 mm 7 mps 749 mmHg 71%
    13:00 +4°C° 0.1 mm 7 mps 749 mmHg 68%
    14:00 +3°C° 0 mm 7 mps 750 mmHg 69%
    15:00 +3°C° 0 mm 6 mps 750 mmHg 70%
    16:00 +3°C° 0 mm 6 mps 750 mmHg 72%
    17:00 +3°C° 0 mm 5 mps 751 mmHg 75%
    18:00 +2°C° 0 mm 5 mps 751 mmHg 78%
    19:00 +3°C° 0 mm 4 mps 752 mmHg 81%
    20:00 +3°C° 0 mm 4 mps 752 mmHg 83%
    21:00 +2°C° 0 mm 3 mps 753 mmHg 86%
    22:00 +2°C° 0 mm 3 mps 753 mmHg 88%
    23:00 +3°C° 0 mm 2 mps 753 mmHg 89%

    Tomorrow, 21 February, Thursday

    Time Temperature Precipitation Wind Pressure Humidity
    00:00 +2°C° 0 mm 2 mps 753 mmHg 90%
    01:00 +2°C° 0 mm 2 mps 754 mmHg 91%
    02:00 +2°C° 0 mm 2 mps 753 mmHg 93%
    03:00 +2°C° 0 mm 2 mps 753 mmHg 94%
    04:00 +2°C° 0 mm 2 mps 753 mmHg 96%
    05:00 +2°C° 0.2 mm 2 mps 753 mmHg 96%
    06:00 +2°C° 0.2 mm 2 mps 753 mmHg 97%
    07:00 +2°C° 0.2 mm 2 mps 753 mmHg 97%
    08:00 +3°C° 0.6 mm 2 mps 753 mmHg 97%
    09:00 +3°C° 0.6 mm 2 mps 753 mmHg 97%
    10:00 +2°C° 0.6 mm 3 mps 753 mmHg 96%
    11:00 +3°C° 1.2 mm 3 mps 752 mmHg 96%
    12:00 +3°C° 1.2 mm 3 mps 752 mmHg 96%
    13:00 +3°C° 1.2 mm 3 mps 752 mmHg 96%
    14:00 +3°C° 0.9 mm 3 mps 751 mmHg 96%
    15:00 +3°C° 0.9 mm 4 mps 751 mmHg 95%
    16:00 +3°C° 0.9 mm 4 mps 750 mmHg 95%
    17:00 +3°C° 0.7 mm 4 mps 750 mmHg 96%
    18:00 +3°C° 0.7 mm 3 mps 750 mmHg 96%
    19:00 +3°C° 0.7 mm 3 mps 750 mmHg 96%
    20:00 +3°C° 0.3 mm 3 mps 750 mmHg 96%
    21:00 +3°C° 0.3 mm 3 mps 750 mmHg 96%
    22:00 +3°C° 0.3 mm 3 mps 751 mmHg 97%
    23:00 +1°C° 0.2 mm 4 mps 751 mmHg 93%

    Day after tomorrow, 22 February, Friday

    Time Temperature Precipitation Wind Pressure Humidity
    00:00 0°C° 0.2 mm 5 mps 752 mmHg 90%
    01:00 -3°C° 0.2 mm 6 mps 752 mmHg 87%
    02:00 -3°C° 0 mm 6 mps 753 mmHg 83%
    03:00 -4°C° 0 mm 6 mps 754 mmHg 78%
    04:00 -5°C° 0 mm 6 mps 755 mmHg 74%
    05:00 -5°C° 0 mm 6 mps 757 mmHg 72%
    06:00 -6°C° 0 mm 6 mps 758 mmHg 70%
    07:00 -6°C° 0 mm 6 mps 760 mmHg 68%
    08:00 -6°C° 0 mm 6 mps 761 mmHg 63%
    09:00 -6°C° 0 mm 6 mps 762 mmHg 59%
    10:00 -5°C° 0 mm 6 mps 763 mmHg 54%
    11:00 -5°C° 0 mm 5 mps 763 mmHg 52%
    12:00 -5°C° 0 mm 5 mps 764 mmHg 51%
    13:00 -4°C° 0 mm 5 mps 765 mmHg 49%
    14:00 -5°C° 0 mm 5 mps 765 mmHg 50%
    15:00 -5°C° 0 mm 5 mps 765 mmHg 50%
    16:00 -4°C° 0 mm 4 mps 766 mmHg 51%
    17:00 -5°C° 0 mm 4 mps 766 mmHg 52%
    18:00 -5°C° 0 mm 4 mps 767 mmHg 52%
    19:00 -7°C° 0 mm 4 mps 767 mmHg 52%
    20:00 -7°C° 0 mm 4 mps 768 mmHg 49%
    21:00 -7°C° 0 mm 4 mps 768 mmHg 45%
    22:00 -7°C° 0 mm 4 mps 769 mmHg 42%
    23:00 -6°C° 0 mm 3 mps 769 mmHg 43%

    23 February, Saturday

    Time Temperature Precipitation Wind Pressure Humidity
    00:00 -6°C° 0 mm 3 mps 769 mmHg 44%
    01:00 -6°C° 0 mm 3 mps 769 mmHg 45%
    02:00 -6°C° 0 mm 3 mps 769 mmHg 46%
    03:00 -5°C° 0 mm 2 mps 769 mmHg 48%
    04:00 -6°C° 0 mm 2 mps 769 mmHg 50%
    05:00 -6°C° 0 mm 2 mps 769 mmHg 51%
    06:00 -6°C° 0 mm 2 mps 769 mmHg 52%
    07:00 -6°C° 0 mm 2 mps 770 mmHg 54%
    08:00 -3°C° 0 mm 1 mps 770 mmHg 49%
    09:00 -3°C° 0 mm 1 mps 770 mmHg 44%
    10:00 -2°C° 0 mm 1 mps 770 mmHg 40%
    11:00 -1°C° 0 mm 1 mps 770 mmHg 37%
    12:00 0°C° 0 mm 1 mps 770 mmHg 35%
    13:00 0°C° 0 mm 1 mps 770 mmHg 32%
    14:00 +1°C° 0 mm 1 mps 769 mmHg 33%
    15:00 +1°C° 0 mm 1 mps 769 mmHg 34%
    16:00 +1°C° 0 mm 1 mps 769 mmHg 34%
    17:00 0°C° 0 mm 1 mps 768 mmHg 37%
    18:00 0°C° 0 mm 1 mps 768 mmHg 39%
    19:00 -1°C° 0 mm 1 mps 768 mmHg 42%
    20:00 -2°C° 0 mm 2 mps 768 mmHg 41%
    21:00 -2°C° 0 mm 2 mps 768 mmHg 41%
    22:00 -2°C° 0 mm 2 mps 768 mmHg 41%
    23:00 -2°C° 0 mm 2 mps 767 mmHg 42%

    24 February, Sunday

    Time Temperature Precipitation Wind Pressure Humidity
    00:00 -2°C° 0 mm 2 mps 767 mmHg 44%
    01:00 -2°C° 0 mm 2 mps 767 mmHg 45%
    02:00 -2°C° 0 mm 3 mps 767 mmHg 47%
    03:00 -2°C° 0 mm 3 mps 766 mmHg 49%
    04:00 -2°C° 0 mm 3 mps 766 mmHg 51%
    05:00 -2°C° 0 mm 2 mps 766 mmHg 53%
    06:00 -3°C° 0 mm 2 mps 766 mmHg 55%
    07:00 -3°C° 0 mm 2 mps 766 mmHg 56%
    08:00 -2°C° 0 mm 2 mps 766 mmHg 55%
    09:00 -1°C° 0 mm 2 mps 766 mmHg 55%
    10:00 +1°C° 0 mm 2 mps 766 mmHg 54%
    11:00 +2°C° 0 mm 2 mps 766 mmHg 55%
    12:00 +3°C° 0 mm 2 mps 765 mmHg 57%
    13:00 +4°C° 0 mm 2 mps 765 mmHg 59%
    14:00 +4°C° 0 mm 2 mps 765 mmHg 63%
    15:00 +3°C° 0 mm 2 mps 765 mmHg 67%
    16:00 +3°C° 0 mm 2 mps 765 mmHg 71%
    17:00 +2°C° 0 mm 2 mps 765 mmHg 74%
    18:00 +2°C° 0 mm 1 mps 765 mmHg 78%
    19:00 +1°C° 0 mm 1 mps 765 mmHg 82%
    20:00 +1°C° 0 mm 1 mps 765 mmHg 82%
    21:00 -1°C° 0 mm 2 mps 765 mmHg 82%
    22:00 -1°C° 0 mm 2 mps 765 mmHg 83%
    23:00 -1°C° 0 mm 2 mps 764 mmHg 83%

    25 February, Monday

    Time Temperature Precipitation Wind Pressure Humidity
    00:00 -1°C° 0 mm 2 mps 764 mmHg 82%
    01:00 -1°C° 0 mm 2 mps 764 mmHg 82%
    02:00 -1°C° 0 mm 2 mps 764 mmHg 82%
    03:00 -1°C° 0 mm 2 mps 764 mmHg 82%
    04:00 -1°C° 0 mm 2 mps 763 mmHg 82%
    05:00 -1°C° 0 mm 2 mps 763 mmHg 85%
    06:00 -1°C° 0 mm 3 mps 763 mmHg 88%
    07:00 -1°C° 0 mm 3 mps 763 mmHg 91%
    08:00 0°C° 0 mm 3 mps 764 mmHg 89%
    09:00 +1°C° 0 mm 4 mps 764 mmHg 86%
    10:00 +3°C° 0 mm 5 mps 764 mmHg 84%
    11:00 +3°C° 0 mm 5 mps 764 mmHg 77%
    12:00 +5°C° 0 mm 5 mps 764 mmHg 70%
    13:00 +5°C° 0 mm 6 mps 764 mmHg 63%
    14:00 +5°C° 0 mm 5 mps 764 mmHg 66%
    15:00 +3°C° 0 mm 5 mps 764 mmHg 70%
    16:00 +4°C° 0 mm 4 mps 764 mmHg 74%
    17:00 +3°C° 0 mm 4 mps 764 mmHg 78%
    18:00 +1°C° 0 mm 4 mps 764 mmHg 83%
    19:00 0°C° 0 mm 4 mps 764 mmHg 88%
    20:00 -1°C° 0 mm 4 mps 764 mmHg 89%
    21:00 0°C° 0 mm 3 mps 764 mmHg 90%
    22:00 0°C° 0 mm 3 mps 764 mmHg 91%
    23:00 0°C° 0 mm 3 mps 764 mmHg 91%
    Show more